This is the latest recevied weather packets stored in our database for station/object DG2GGP-11. If no packets are shown the sender has not sent any weather packets the latest 10 day(s).
| Time | Temp. | Humidity | Pressure | Rain* | Wind** | Luminosity | Snow |
|---|---|---|---|---|---|---|---|
| 1777745357 | 19.44° C | 54% | 1017.9 hPa | 0 mm | - | 1 W/m² | - |
| 1777744757 | 21.11° C | 51% | 1017.9 hPa | 0 mm | - | 1 W/m² | - |
| 1777744157 | 21.67° C | 47% | 1017.8 hPa | 0 mm | - | 2 W/m² | - |
| 1777743556 | 22.22° C | 43% | 1017.8 hPa | 0 mm | - | 3 W/m² | - |
| 1777742956 | 23.33° C | 38% | 1017.9 hPa | 0 mm | - | 3 W/m² | - |
| 1777742357 | 24.44° C | 36% | 1018 hPa | 0 mm | - | 4 W/m² | - |
| 1777741757 | 24.44° C | 36% | 1018.1 hPa | 0 mm | - | 18 W/m² | - |
| 1777741157 | 24.44° C | 35% | 1018.2 hPa | 0 mm | - | 20 W/m² | - |
| 1777740557 | 25° C | 36% | 1018.2 hPa | 0 mm | - | 23 W/m² | - |
| 1777739957 | 25° C | 35% | 1018.3 hPa | 0 mm | - | 25 W/m² | - |
| 1777739357 | 24.44° C | 36% | 1018.4 hPa | 0 mm | - | 26 W/m² | - |
| 1777738757 | 24.44° C | 35% | 1018.6 hPa | 0 mm | - | 25 W/m² | - |
| 1777738157 | 25.56° C | 33% | 1018.7 hPa | 0 mm | - | 8 W/m² | - |
| 1777737556 | 26.11° C | 31% | 1018.8 hPa | 0 mm | - | 30 W/m² | - |
| 1777736957 | 24.44° C | 33% | 1018.8 hPa | 0 mm | - | 34 W/m² | - |
| 1777736356 | 25.56° C | 32% | 1018.9 hPa | 0 mm | - | 36 W/m² | - |
| 1777735757 | 25° C | 35% | 1019 hPa | 0 mm | - | 36 W/m² | - |
| 1777735157 | 24.44° C | 35% | 1019.1 hPa | 0 mm | - | 38 W/m² | - |
| 1777734557 | 25° C | 33% | 1019.2 hPa | 0 mm | - | 30 W/m² | - |
| 1777733956 | 25.56° C | 32% | 1019.3 hPa | 0 mm | - | 14 W/m² | - |
| 1777733357 | 24.44° C | 33% | 1019.4 hPa | 0 mm | - | 38 W/m² | - |
| 1777732756 | 24.44° C | 34% | 1019.6 hPa | 0 mm | - | 37 W/m² | - |
| 1777732157 | 24.44° C | 32% | 1019.8 hPa | 0 mm | - | 21 W/m² | - |
| 1777731556 | 25.56° C | 31% | 1019.9 hPa | 0 mm | - | 19 W/m² | - |
| 1777730957 | 25.56° C | 31% | 1020 hPa | 0 mm | - | 39 W/m² | - |
* Rain latest hour (hover to see other rain measurements)
** Current wind speed in m/s (hover to see current wind gust speed)